Home   Weather   Enugu   Past weeks
Flag for Nigeria

Past Weather in Enugu, Nigeria — Yesterday and Last 2 Weeks

Now
90 °F

Passing clouds.


Feels Like: 100 °F
Forecast: 94 / 74 °F
Wind: 6 mph from Northwest

Location: Malabo/Fernando Poo

Current Time: Mar 25, 2019 at 1:26:18 pm

Latest Report: Mar 25, 2019 at 12:00 pm


Visibility: N/A

Pressure: 29.89 "Hg

Humidity: 63%

Dew Point: 75 °F

Location of EnuguLocation

Past Weather in Enugu — Graph

°F

Enugu Temperature Yesterday

Maximum temperature yesterday: 86 °F (at 2:00 pm)
Minimum temperature yesterday: 73 °F (at 6:00 am)
Average temperature yesterday: 79 °F

High & Low Weather Summary for the Past Weeks

 TemperatureHumidityPressure
High93 °F (Mar 21, 12:00 pm)100% (Mar 23, 11:00 pm)29.95 "Hg (Mar 23, 11:00 pm)
Low73 °F (Mar 16, 9:00 am)56% (Mar 18, 2:00 pm)29.68 "Hg (Mar 21, 6:00 pm)
Average83 °F80%29.83 "Hg
* Reported Mar 10 12:00 pm — Mar 25 12:00 pm, Enugu. Weather by CustomWeather, © 2019

Note: Actual official high and low records may vary slightly from our data, if they occured in-between our weather recording intervals... More about our weather records

Advertising

Enugu Weather History for the Previous 24 Hours

Scroll right to see more
 ConditionsComfort  
Time TempWeatherWind HumidityBarometerVisibility
12:00 pm
Mon, Mar 25
90 °FPassing clouds.6 mph63%29.89 "HgN/A
11:00 am88 °FPartly sunny.6 mph66%29.92 "HgN/A
10:00 am88 °FPartly sunny.1 mph62%29.92 "HgN/A
9:00 am82 °FPartly sunny.2 mph74%29.92 "HgN/A
8:00 am79 °FScattered clouds.2 mph84%29.89 "HgN/A
7:00 am75 °FPassing clouds.2 mph89%29.89 "HgN/A
6:00 am75 °FPassing clouds.2 mph89%29.86 "HgN/A
5:00 am75 °FPassing clouds.1 mph89%29.86 "HgN/A
4:00 am75 °FPassing clouds.3 mph89%29.86 "HgN/A
3:00 am75 °FPassing clouds.3 mph89%29.83 "HgN/A
2:00 am75 °FPassing clouds.No wind94%29.83 "HgN/A
1:00 am75 °FPassing clouds.No wind94%29.86 "HgN/A
12:00 am75 °FPassing clouds.No wind94%29.89 "HgN/A
10:00 pm
Sun, Mar 24
77 °FPassing clouds.1 mph89%29.89 "HgN/A
9:00 pm77 °FPassing clouds.No wind94%29.89 "HgN/A
8:00 pm79 °FPassing clouds.1 mph89%29.89 "HgN/A
7:00 pm81 °FPassing clouds.7 mph79%29.86 "HgN/A
6:00 pm81 °FPartly sunny.12 mph79%29.83 "HgN/A
5:00 pm81 °FPartly sunny.8 mph79%29.80 "HgN/A
4:00 pm81 °FBroken clouds.9 mph84%29.80 "HgN/A
3:00 pm82 °FBroken clouds.8 mph74%29.83 "HgN/A
2:00 pm86 °FPassing clouds.8 mph70%29.83 "HgN/A
1:00 pm84 °FPassing clouds.9 mph66%29.86 "HgN/A
Weather by CustomWeather, © 2019

See weather overview